| time (UTC) | temp C | wind direction | speed KPH | gust KPH | rain 1hr cm | rain 24hr cm | rain mn cm | humidity % | barometer mb |
| 20260903220524 | 22 | 278 | 4.8 | 14.5 | 0.00 | 0.00 | 0.00 | 67 | 1013.6 |
| 20260903220024 | 22 | 258 | 4.8 | 17.7 | 0.00 | 0.00 | 0.00 | 67 | 1013.6 |
| 20260903215503 | 22 | 257 | 4.8 | 17.7 | 0.00 | 0.00 | 0.00 | 67 | 1013.6 |
| 20260903215003 | 22 | 267 | 3.2 | 16.1 | 0.00 | 0.00 | 0.00 | 67 | 1013.6 |
| 20260903214503 | 22 | 268 | 3.2 | 11.3 | 0.00 | 0.00 | 0.00 | 67 | 1013.6 |
| 20260903214003 | 22 | 279 | 3.2 | 11.3 | 0.00 | 0.00 | 0.00 | 67 | 1014.4 |
| 20260903213503 | 22 | 310 | 3.2 | 12.9 | 0.00 | 0.00 | 0.00 | 68 | 1014.4 |
| 20260903213003 | 22 | 286 | 4.8 | 14.5 | 0.00 | 0.00 | 0.00 | 69 | 1014.4 |
| 20260903212503 | 21 | 296 | 4.8 | 17.7 | 0.00 | 0.00 | 0.00 | 70 | 1014.4 |
| 20260903212003 | 21 | 307 | 4.8 | 17.7 | 0.00 | 0.00 | 0.00 | 70 | 1014.4 |
| 20260903211503 | 21 | 289 | 4.8 | 12.9 | 0.00 | 0.00 | 0.00 | 71 | 1014.4 |
| 20260903211003 | 21 | 301 | 3.2 | 12.9 | 0.00 | 0.00 | 0.00 | 71 | 1014.4 |
| 20260903210503 | 21 | 305 | 3.2 | 8.0 | 0.00 | 0.00 | 0.00 | 71 | 1014.4 |
| 20260903210003 | 21 | 261 | 3.2 | 11.3 | 0.00 | 0.00 | 0.00 | 72 | 1014.4 |
| 20260903205503 | 20 | 258 | 3.2 | 11.3 | 0.00 | 0.00 | 0.00 | 71 | 1014.4 |
| 20260903205024 | 20 | 264 | 3.2 | 11.3 | 0.00 | 0.00 | 0.00 | 71 | 1014.4 |
| 20260903204503 | 20 | 253 | 6.4 | 14.5 | 0.00 | 0.00 | 0.00 | 71 | 1014.4 |
| 20260903204003 | 20 | 253 | 6.4 | 14.5 | 0.00 | 0.00 | 0.00 | 70 | 1014.4 |
| 20260903203503 | 21 | 256 | 6.4 | 16.1 | 0.00 | 0.00 | 0.00 | 70 | 1014.4 |
| 20260903203024 | 21 | 258 | 4.8 | 16.1 | 0.00 | 0.00 | 0.00 | 69 | 1014.4 |
| 20260903202503 | 21 | 255 | 4.8 | 16.1 | 0.00 | 0.00 | 0.00 | 69 | 1014.4 |
| 20260903202003 | 21 | 256 | 3.2 | 16.1 | 0.00 | 0.00 | 0.00 | 68 | 1014.4 |
| 20260903201503 | 21 | 251 | 3.2 | 12.9 | 0.00 | 0.00 | 0.00 | 68 | 1014.4 |
| 20260903201003 | 21 | 253 | 4.8 | 12.9 | 0.00 | 0.00 | 0.00 | 68 | 1014.4 |
| 20260903200503 | 21 | 256 | 4.8 | 17.7 | 0.00 | 0.00 | 0.00 | 68 | 1014.4 |
| 20260903200003 | 21 | 249 | 3.2 | 17.7 | 0.00 | 0.00 | 0.00 | 69 | 1014.4 |
| 20260903195503 | 21 | 258 | 3.2 | 12.9 | 0.00 | 0.00 | 0.00 | 69 | 1014.4 |
| 20260903195003 | 21 | 271 | 3.2 | 9.7 | 0.00 | 0.00 | 0.00 | 70 | 1014.4 |
| 20260903194524 | 20 | 249 | 4.8 | 14.5 | 0.00 | 0.00 | 0.00 | 71 | 1014.4 |
| 20260903194003 | 20 | 247 | 6.4 | 14.5 | 0.00 | 0.00 | 0.00 | 69 | 1015.0 |
| 20260903193503 | 20 | 247 | 3.2 | 11.3 | 0.00 | 0.00 | 0.00 | 70 | 1015.0 |
| 20260903193003 | 20 | 250 | 3.2 | 14.5 | 0.00 | 0.00 | 0.00 | 69 | 1015.0 |
| 20260903192503 | 20 | 252 | 4.8 | 17.7 | 0.00 | 0.00 | 0.00 | 69 | 1015.0 |
| 20260903192024 | 20 | 252 | 3.2 | 17.7 | 0.00 | 0.00 | 0.00 | 68 | 1015.0 |
| 20260903191503 | 20 | 266 | 3.2 | 9.7 | 0.00 | 0.00 | 0.00 | 68 | 1015.0 |
| 20260903191003 | 20 | 276 | 4.8 | 9.7 | 0.00 | 0.00 | 0.00 | 68 | 1015.0 |
| 20260903190503 | 20 | 276 | 3.2 | 9.7 | 0.00 | 0.00 | 0.00 | 69 | 1015.0 |
| 20260903190003 | 20 | 232 | 3.2 | 9.7 | 0.00 | 0.00 | 0.00 | 69 | 1015.0 |
| 20260903185503 | 20 | 208 | 4.8 | 14.5 | 0.00 | 0.00 | 0.00 | 69 | 1015.0 |
| 20260903185003 | 20 | 240 | 4.8 | 14.5 | 0.00 | 0.00 | 0.00 | 69 | 1015.0 |
| 20260903184524 | 20 | 266 | 4.8 | 14.5 | 0.00 | 0.00 | 0.00 | 69 | 1015.0 |
| 20260903184003 | 20 | 250 | 4.8 | 12.9 | 0.00 | 0.00 | 0.00 | 69 | 1015.0 |
| 20260903183503 | 20 | 244 | 4.8 | 12.9 | 0.00 | 0.00 | 0.00 | 69 | 1015.0 |
| 20260903183003 | 20 | 252 | 4.8 | 12.9 | 0.00 | 0.00 | 0.00 | 69 | 1015.0 |
| 20260903182524 | 20 | 239 | 4.8 | 17.7 | 0.00 | 0.00 | 0.00 | 69 | 1015.0 |
| 20260903182024 | 20 | 195 | 6.4 | 17.7 | 0.00 | 0.00 | 0.00 | 70 | 1015.0 |
| 20260903181503 | 19 | 187 | 4.8 | 14.5 | 0.00 | 0.00 | 0.00 | 71 | 1015.0 |
| 20260903181024 | 19 | 187 | 4.8 | 14.5 | 0.00 | 0.00 | 0.00 | 71 | 1015.0 |
| 20260903180503 | 19 | 202 | 4.8 | 14.5 | 0.00 | 0.00 | 0.00 | 72 | 1015.0 |
| 20260903180003 | 18 | 230 | 4.8 | 11.3 | 0.00 | 0.00 | 0.00 | 73 | 1015.0 |
| 20260903175503 | 18 | 208 | 4.8 | 12.9 | 0.00 | 0.00 | 0.00 | 73 | 1015.0 |
| 20260903175003 | 18 | 204 | 4.8 | 12.9 | 0.00 | 0.00 | 0.00 | 74 | 1015.0 |
| 20260903174503 | 18 | 210 | 4.8 | 12.9 | 0.00 | 0.00 | 0.00 | 75 | 1015.0 |
| 20260903174003 | 18 | 222 | 3.2 | 12.9 | 0.00 | 0.00 | 0.00 | 75 | 1015.2 |
| 20260903173503 | 17 | 200 | 4.8 | 12.9 | 0.00 | 0.00 | 0.00 | 76 | 1015.2 |
| 20260903173003 | 17 | 176 | 4.8 | 12.9 | 0.00 | 0.00 | 0.00 | 76 | 1015.2 |
| 20260903172503 | 17 | 177 | 4.8 | 11.3 | 0.00 | 0.00 | 0.00 | 77 | 1015.2 |
| 20260903172003 | 17 | 184 | 4.8 | 12.9 | 0.00 | 0.00 | 0.00 | 77 | 1015.2 |
| 20260903171524 | 17 | 181 | 6.4 | 12.9 | 0.00 | 0.00 | 0.00 | 77 | 1015.2 |
| 20260903171003 | 17 | 189 | 6.4 | 11.3 | 0.00 | 0.00 | 0.00 | 78 | 1015.2 |
| 20260903170503 | 17 | 187 | 4.8 | 11.3 | 0.00 | 0.00 | 0.00 | 79 | 1015.2 |
| 20260903170024 | 17 | 171 | 4.8 | 11.3 | 0.00 | 0.00 | 0.00 | 79 | 1015.2 |
| 20260903165503 | 16 | 172 | 4.8 | 9.7 | 0.00 | 0.00 | 0.00 | 80 | 1015.2 |
| 20260903165003 | 16 | 171 | 4.8 | 11.3 | 0.00 | 0.00 | 0.00 | 81 | 1015.2 |
| 20260903164503 | 16 | 160 | 4.8 | 14.5 | 0.00 | 0.00 | 0.00 | 81 | 1015.2 |
| 20260903164003 | 16 | 158 | 4.8 | 14.5 | 0.00 | 0.00 | 0.00 | 82 | 1015.3 |
| 20260903163503 | 16 | 191 | 4.8 | 9.7 | 0.00 | 0.00 | 0.00 | 82 | 1015.3 |
| 20260903163024 | 16 | 196 | 6.4 | 14.5 | 0.00 | 0.00 | 0.00 | 82 | 1015.3 |
| 20260903162503 | 16 | 197 | 6.4 | 14.5 | 0.00 | 0.00 | 0.00 | 82 | 1015.3 |
| 20260903162003 | 16 | 203 | 6.4 | 9.7 | 0.00 | 0.00 | 0.00 | 83 | 1015.3 |
| 20260903161503 | 16 | 191 | 4.8 | 12.9 | 0.00 | 0.00 | 0.00 | 83 | 1015.3 |
| 20260903161003 | 16 | 171 | 4.8 | 12.9 | 0.00 | 0.00 | 0.00 | 84 | 1015.3 |
| 20260903160503 | 16 | 182 | 6.4 | 11.3 | 0.00 | 0.00 | 0.00 | 84 | 1015.3 |
| 20260903160003 | 16 | 195 | 4.8 | 9.7 | 0.00 | 0.00 | 0.00 | 84 | 1015.4 |
| 20260903155503 | 16 | 180 | 4.8 | 9.7 | 0.00 | 0.00 | 0.00 | 85 | 1015.4 |
| 20260903155003 | 16 | 165 | 3.2 | 9.7 | 0.00 | 0.00 | 0.00 | 86 | 1015.4 |
| 20260903154503 | 16 | 163 | 4.8 | 11.3 | 0.00 | 0.00 | 0.00 | 86 | 1015.4 |
| 20260903154003 | 16 | 169 | 4.8 | 11.3 | 0.00 | 0.00 | 0.00 | 87 | 1015.4 |
| 20260903153524 | 15 | 174 | 3.2 | 8.0 | 0.00 | 0.00 | 0.00 | 88 | 1015.4 |
| 20260903153003 | 15 | 178 | 3.2 | 9.7 | 0.00 | 0.00 | 0.00 | 89 | 1015.4 |
| 20260903152524 | 15 | 169 | 3.2 | 9.7 | 0.00 | 0.00 | 0.00 | 90 | 1015.4 |
| 20260903152024 | 15 | 162 | 3.2 | 9.7 | 0.00 | 0.00 | 0.00 | 90 | 1015.4 |
| 20260903151503 | 15 | 166 | 1.6 | 9.7 | 0.00 | 0.00 | 0.00 | 90 | 1015.4 |
| 20260903151003 | 15 | 167 | 1.6 | 6.4 | 0.00 | 0.00 | 0.00 | 91 | 1015.4 |
| 20260903150503 | 15 | 167 | 1.6 | 8.0 | 0.00 | 0.00 | 0.00 | 91 | 1015.4 |
| 20260903150003 | 15 | 170 | 1.6 | 8.0 | 0.00 | 0.00 | 0.00 | 91 | 1015.8 |
| 20260903145524 | 14 | 178 | 1.6 | 6.4 | 0.00 | 0.00 | 0.00 | 91 | 1015.8 |
| 20260903145024 | 14 | 182 | 1.6 | 4.8 | 0.00 | 0.00 | 0.00 | 92 | 1015.8 |
| 20260903144503 | 14 | 184 | 0.0 | 3.2 | 0.00 | 0.00 | 0.00 | 92 | 1015.8 |
| 20260903144024 | 14 | 184 | 0.0 | 3.2 | 0.00 | 0.00 | 0.00 | 92 | 1015.8 |
| 20260903143503 | 13 | 184 | 0.0 | 1.6 | 0.00 | 0.00 | 0.00 | 91 | 1015.8 |
| 20260903143004 | 13 | 184 | 0.0 | 3.2 | 0.00 | 0.00 | 0.00 | 91 | 1015.8 |
| 20260903142503 | 13 | 184 | 1.6 | 4.8 | 0.00 | 0.00 | 0.00 | 91 | 1015.8 |
| 20260903142003 | 13 | 184 | 1.6 | 4.8 | 0.00 | 0.00 | 0.00 | 91 | 1015.8 |
| 20260903141503 | 13 | 184 | 1.6 | 3.2 | 0.00 | 0.00 | 0.00 | 91 | 1015.8 |
| 20260903141003 | 13 | 184 | 1.6 | 4.8 | 0.00 | 0.00 | 0.00 | 91 | 1015.8 |
| 20260903140503 | 13 | 184 | 0.0 | 4.8 | 0.00 | 0.00 | 0.00 | 91 | 1015.8 |
| 20260903140004 | 13 | 184 | 0.0 | 4.8 | 0.00 | 0.00 | 0.00 | 91 | 1015.8 |
| 20260903135503 | 13 | 185 | 1.6 | 4.8 | 0.00 | 0.00 | 0.00 | 91 | 1015.8 |
| 20260903135003 | 13 | 185 | 1.6 | 4.8 | 0.00 | 0.00 | 0.00 | 91 | 1015.8 |
| 20260903134503 | 13 | 186 | 1.6 | 4.8 | 0.00 | 0.00 | 0.00 | 91 | 1015.8 |
| 20260903134003 | 13 | 187 | 3.2 | 4.8 | 0.00 | 0.00 | 0.00 | 91 | 1015.8 |
| 20260903133503 | 13 | 188 | 1.6 | 4.8 | 0.00 | 0.00 | 0.00 | 91 | 1015.8 |
| 20260903133003 | 13 | 189 | 1.6 | 4.8 | 0.00 | 0.00 | 0.00 | 91 | 1015.8 |
| 20260903132524 | 13 | 189 | 1.6 | 4.8 | 0.00 | 0.00 | 0.00 | 91 | 1015.8 |
| 20260903132003 | 13 | 190 | 1.6 | 4.8 | 0.00 | 0.00 | 0.00 | 92 | 1015.8 |
| 20260903131503 | 13 | 190 | 1.6 | 3.2 | 0.00 | 0.00 | 0.00 | 92 | 1015.8 |
| 20260903131003 | 13 | 190 | 1.6 | 4.8 | 0.00 | 0.00 | 0.00 | 92 | 1015.8 |
| 20260903130503 | 13 | 190 | 1.6 | 4.8 | 0.00 | 0.00 | 0.00 | 92 | 1015.8 |
| 20260903130003 | 13 | 191 | 1.6 | 4.8 | 0.00 | 0.00 | 0.00 | 92 | 1015.8 |
| 20260903125503 | 13 | 192 | 1.6 | 3.2 | 0.00 | 0.00 | 0.00 | 92 | 1015.8 |
| 20260903125003 | 13 | 193 | 1.6 | 3.2 | 0.00 | 0.00 | 0.00 | 92 | 1015.8 |
| 20260903124503 | 13 | 193 | 1.6 | 4.8 | 0.00 | 0.00 | 0.00 | 92 | 1015.8 |
| 20260903124003 | 13 | 194 | 1.6 | 4.8 | 0.00 | 0.00 | 0.00 | 92 | 1015.8 |
| 20260903123504 | 13 | 194 | 1.6 | 4.8 | 0.00 | 0.00 | 0.00 | 93 | 1015.8 |
| 20260903123024 | 13 | 194 | 1.6 | 4.8 | 0.00 | 0.00 | 0.00 | 93 | 1015.8 |
| 20260903122503 | 13 | 196 | 1.6 | 3.2 | 0.00 | 0.00 | 0.00 | 93 | 1015.8 |
| 20260903122003 | 13 | 197 | 1.6 | 4.8 | 0.00 | 0.00 | 0.00 | 93 | 1015.8 |
| 20260903121503 | 13 | 198 | 1.6 | 4.8 | 0.00 | 0.00 | 0.00 | 93 | 1015.8 |
| 20260903121003 | 13 | 198 | 0.0 | 3.2 | 0.00 | 0.00 | 0.00 | 93 | 1015.8 |
| 20260903120503 | 13 | 198 | 1.6 | 3.2 | 0.00 | 0.00 | 0.00 | 93 | 1015.8 |
| 20260903120003 | 13 | 198 | 1.6 | 3.2 | 0.00 | 0.00 | 0.00 | 93 | 1015.8 |
| 20260903115503 | 13 | 198 | 0.0 | 3.2 | 0.00 | 0.00 | 0.00 | 93 | 1015.8 |
| 20260903115003 | 13 | 198 | 1.6 | 3.2 | 0.00 | 0.00 | 0.00 | 93 | 1015.8 |
| 20260903114503 | 13 | 198 | 1.6 | 4.8 | 0.00 | 0.00 | 0.00 | 93 | 1015.8 |
| 20260903114024 | 13 | 199 | 1.6 | 4.8 | 0.00 | 0.00 | 0.00 | 93 | 1015.8 |
| 20260903113501 | 13 | 248 | 1.6 | 4.8 | 0.00 | 0.00 | 0.00 | 93 | 1015.8 |
| 20260903113001 | 13 | 281 | 1.6 | 4.8 | 0.00 | 0.00 | 0.00 | 93 | 1015.8 |
| 20260903112501 | 13 | 293 | 1.6 | 4.8 | 0.00 | 0.00 | 0.00 | 93 | 1015.8 |
| 20260903112001 | 13 | 296 | 0.0 | 1.6 | 0.00 | 0.00 | 0.00 | 93 | 1015.8 |
| 20260903111501 | 13 | 296 | 0.0 | 1.6 | 0.00 | 0.00 | 0.00 | 93 | 1015.8 |
| 20260903111002 | 13 | 296 | 0.0 | 3.2 | 0.00 | 0.00 | 0.00 | 93 | 1015.8 |
| 20260903110502 | 13 | 296 | 1.6 | 3.2 | 0.00 | 0.00 | 0.00 | 93 | 1015.8 |
| 20260903110023 | 13 | 296 | 1.6 | 3.2 | 0.00 | 0.00 | 0.00 | 93 | 1015.9 |
| 20260903105502 | 13 | 297 | 1.6 | 3.2 | 0.00 | 0.00 | 0.00 | 92 | 1015.9 |
| 20260903105002 | 13 | 297 | 1.6 | 3.2 | 0.00 | 0.00 | 0.00 | 92 | 1015.9 |
| 20260903104523 | 13 | 297 | 1.6 | 3.2 | 0.00 | 0.00 | 0.00 | 92 | 1015.9 |
| 20260903104002 | 13 | 297 | 0.0 | 3.2 | 0.00 | 0.00 | 0.00 | 92 | 1015.9 |
| 20260903103001 | 13 | 0 | 0.0 | 0.0 | 0.00 | 0.00 | 0.00 | 92 | 1015.9 |
| 20260903102502 | 13 | 0 | 0.0 | 0.0 | 0.00 | 0.00 | 0.00 | 92 | 1015.8 |
| 20260903102002 | 13 | 297 | 0.0 | 4.8 | 0.00 | 0.00 | 0.00 | 92 | 1015.8 |
| 20260903101502 | 13 | 297 | 0.0 | 4.8 | 0.00 | 0.00 | 0.00 | 92 | 1015.8 |
| 20260903101001 | 13 | 299 | 0.0 | 3.2 | 0.00 | 0.00 | 0.00 | 92 | 1015.8 |
| 20260903100501 | 13 | 300 | 0.0 | 3.2 | 0.00 | 0.00 | 0.00 | 92 | 1015.8 |
| 20260903100002 | 13 | 0 | 0.0 | 0.0 | 0.00 | 0.00 | 0.00 | 92 | 1015.8 |
| 20260903095522 | 13 | 0 | 0.0 | 0.0 | 0.00 | 0.00 | 0.00 | 92 | 1015.8 |
| 20260903095023 | 13 | 0 | 0.0 | 0.0 | 0.00 | 0.00 | 0.00 | 92 | 1016.9 |
| 20260903094501 | 13 | 0 | 0.0 | 0.0 | 0.00 | 0.00 | 0.00 | 92 | 1016.9 |
| 20260903094002 | 14 | 0 | 0.0 | 0.0 | 0.00 | 0.00 | 0.00 | 92 | 1016.9 |
| 20260903093502 | 14 | 0 | 0.0 | 0.0 | 0.00 | 0.00 | 0.00 | 92 | 1016.9 |
| 20260903093002 | 14 | 0 | 0.0 | 0.0 | 0.00 | 0.00 | 0.00 | 92 | 1016.9 |
| 20260903092502 | 14 | 0 | 0.0 | 0.0 | 0.00 | 0.00 | 0.00 | 92 | 1016.9 |
| 20260903092023 | 14 | 0 | 0.0 | 0.0 | 0.00 | 0.00 | 0.00 | 92 | 1016.9 |
| 20260903091502 | 14 | 0 | 0.0 | 0.0 | 0.00 | 0.00 | 0.00 | 92 | 1016.9 |
| 20260903091002 | 14 | 0 | 0.0 | 0.0 | 0.00 | 0.00 | 0.00 | 92 | 1016.9 |
| 20260903090502 | 14 | 0 | 0.0 | 0.0 | 0.00 | 0.00 | 0.00 | 92 | 1016.9 |
| 20260903090023 | 14 | 303 | 0.0 | 1.6 | 0.00 | 0.00 | 0.00 | 92 | 1016.9 |
| 20260903085501 | 14 | 303 | 0.0 | 3.2 | 0.00 | 0.00 | 0.00 | 92 | 1016.9 |
| 20260903085002 | 14 | 304 | 0.0 | 3.2 | 0.00 | 0.00 | 0.00 | 92 | 1016.9 |
| 20260903084523 | 14 | 304 | 0.0 | 3.2 | 0.00 | 0.00 | 0.00 | 92 | 1016.9 |
| 20260903084002 | 14 | 304 | 0.0 | 3.2 | 0.00 | 0.00 | 0.00 | 92 | 1016.9 |
| 20260903083502 | 14 | 306 | 0.0 | 3.2 | 0.00 | 0.00 | 0.00 | 92 | 1016.9 |
| 20260903083002 | 14 | 311 | 0.0 | 3.2 | 0.00 | 0.00 | 0.00 | 92 | 1016.9 |
| 20260903082502 | 14 | 314 | 0.0 | 3.2 | 0.00 | 0.00 | 0.00 | 92 | 1016.9 |
| 20260903082023 | 14 | 317 | 0.0 | 3.2 | 0.00 | 0.00 | 0.00 | 92 | 1016.9 |
| 20260903081502 | 14 | 317 | 0.0 | 3.2 | 0.00 | 0.00 | 0.00 | 92 | 1016.9 |
| 20260903081023 | 14 | 0 | 0.0 | 0.0 | 0.00 | 0.00 | 0.00 | 92 | 1016.9 |
| 20260903080502 | 14 | 317 | 0.0 | 1.6 | 0.00 | 0.00 | 0.00 | 92 | 1016.9 |
| 20260903080023 | 14 | 317 | 0.0 | 1.6 | 0.00 | 0.00 | 0.00 | 92 | 1016.9 |
| 20260903075502 | 14 | 317 | 0.0 | 3.2 | 0.00 | 0.00 | 0.00 | 92 | 1016.9 |
| 20260903075002 | 14 | 317 | 0.0 | 3.2 | 0.00 | 0.00 | 0.00 | 92 | 1016.9 |
| 20260903074502 | 14 | 317 | 0.0 | 4.8 | 0.00 | 0.00 | 0.00 | 91 | 1016.9 |
| 20260903074002 | 14 | 317 | 0.0 | 4.8 | 0.00 | 0.00 | 0.00 | 92 | 1016.9 |
| 20260903073502 | 14 | 317 | 0.0 | 3.2 | 0.00 | 0.00 | 0.00 | 91 | 1016.9 |
| 20260903073002 | 14 | 317 | 0.0 | 3.2 | 0.00 | 0.00 | 0.00 | 91 | 1016.9 |
| 20260903072504 | 14 | 317 | 0.0 | 1.6 | 0.00 | 0.00 | 0.00 | 91 | 1016.9 |
| 20260903072002 | 14 | 317 | 0.0 | 1.6 | 0.00 | 0.00 | 0.00 | 92 | 1016.9 |
| 20260903071502 | 14 | 317 | 0.0 | 1.6 | 0.00 | 0.00 | 0.00 | 91 | 1016.9 |
| 20260903071002 | 14 | 317 | 0.0 | 1.6 | 0.00 | 0.00 | 0.00 | 91 | 1016.9 |
| 20260903070502 | 14 | 317 | 0.0 | 1.6 | 0.00 | 0.00 | 0.00 | 91 | 1016.9 |
| 20260903070012 | 14 | 319 | 0.0 | 3.2 | 0.00 | 0.00 | 0.00 | 91 | 1016.9 |
| 20260903065502 | 14 | 320 | 0.0 | 3.2 | 0.00 | 0.00 | 0.00 | 91 | 1016.9 |
| 20260903065023 | 14 | 321 | 0.0 | 3.2 | 0.00 | 0.00 | 0.00 | 91 | 1016.9 |
| 20260903064523 | 14 | 328 | 0.0 | 3.2 | 0.00 | 0.00 | 0.00 | 91 | 1016.9 |
| 20260903064023 | 14 | 331 | 0.0 | 3.2 | 0.00 | 0.00 | 0.00 | 91 | 1016.9 |
| 20260903063523 | 14 | 340 | 0.0 | 3.2 | 0.00 | 0.00 | 0.00 | 91 | 1016.9 |
| 20260903063002 | 14 | 340 | 0.0 | 3.2 | 0.00 | 0.00 | 0.00 | 91 | 1016.9 |
| 20260903062502 | 14 | 340 | 0.0 | 3.2 | 0.00 | 0.00 | 0.00 | 91 | 1016.9 |
| 20260903062002 | 14 | 340 | 0.0 | 1.6 | 0.00 | 0.00 | 0.00 | 91 | 1016.9 |
| 20260903061502 | 14 | 341 | 0.0 | 1.6 | 0.00 | 0.00 | 0.00 | 90 | 1016.9 |
| 20260903061023 | 14 | 340 | 0.0 | 3.2 | 0.00 | 0.00 | 0.00 | 90 | 1016.9 |
| 20260903060502 | 14 | 339 | 0.0 | 3.2 | 0.00 | 0.00 | 0.00 | 90 | 1016.9 |
| 20260903060002 | 14 | 338 | 0.0 | 1.6 | 0.00 | 0.00 | 0.00 | 90 | 1016.9 |
| 20260903055502 | 14 | 338 | 0.0 | 1.6 | 0.00 | 0.00 | 0.00 | 90 | 1016.9 |
| 20260903055002 | 14 | 338 | 0.0 | 4.8 | 0.00 | 0.00 | 0.00 | 90 | 1016.9 |
| 20260903054523 | 14 | 338 | 0.0 | 4.8 | 0.00 | 0.00 | 0.00 | 90 | 1016.9 |
| 20260903054002 | 14 | 340 | 0.0 | 3.2 | 0.00 | 0.00 | 0.00 | 90 | 1016.9 |
| 20260903053502 | 14 | 340 | 0.0 | 3.2 | 0.00 | 0.00 | 0.00 | 89 | 1016.5 |
| 20260903053002 | 14 | 340 | 0.0 | 3.2 | 0.00 | 0.00 | 0.00 | 89 | 1016.5 |
| 20260903052523 | 14 | 342 | 0.0 | 3.2 | 0.00 | 0.00 | 0.00 | 89 | 1016.5 |
| 20260903052002 | 14 | 337 | 1.6 | 6.4 | 0.00 | 0.00 | 0.00 | 89 | 1016.5 |
| 20260903051502 | 14 | 334 | 1.6 | 6.4 | 0.00 | 0.00 | 0.00 | 89 | 1016.5 |
| 20260903051002 | 14 | 325 | 0.0 | 4.8 | 0.00 | 0.00 | 0.00 | 89 | 1016.5 |
| 20260903050502 | 14 | 327 | 0.0 | 4.8 | 0.00 | 0.00 | 0.00 | 88 | 1016.5 |
| 20260903050002 | 14 | 324 | 0.0 | 4.8 | 0.00 | 0.00 | 0.00 | 88 | 1016.5 |
| 20260903045502 | 15 | 317 | 1.6 | 8.0 | 0.00 | 0.00 | 0.00 | 88 | 1016.5 |
| 20260903045002 | 15 | 318 | 1.6 | 8.0 | 0.00 | 0.00 | 0.00 | 88 | 1016.5 |
| 20260903044523 | 15 | 306 | 1.6 | 6.4 | 0.00 | 0.00 | 0.00 | 88 | 1016.5 |
| 20260903044023 | 15 | 301 | 1.6 | 6.4 | 0.00 | 0.00 | 0.00 | 87 | 1016.5 |
| 20260903043502 | 15 | 317 | 1.6 | 6.4 | 0.00 | 0.00 | 0.00 | 87 | 1016.5 |
| 20260903043023 | 15 | 318 | 1.6 | 6.4 | 0.00 | 0.00 | 0.00 | 86 | 1016.5 |
| 20260903042502 | 15 | 324 | 0.0 | 3.2 | 0.00 | 0.00 | 0.00 | 86 | 1016.5 |
| 20260903042023 | 15 | 323 | 0.0 | 3.2 | 0.00 | 0.00 | 0.00 | 86 | 1016.5 |
| 20260903041502 | 15 | 320 | 0.0 | 4.8 | 0.00 | 0.00 | 0.00 | 86 | 1016.5 |
| 20260903041002 | 15 | 319 | 0.0 | 4.8 | 0.00 | 0.00 | 0.00 | 86 | 1016.5 |
| 20260903040502 | 15 | 318 | 0.0 | 3.2 | 0.00 | 0.00 | 0.00 | 85 | 1016.5 |
| 20260903040002 | 15 | 319 | 0.0 | 1.6 | 0.00 | 0.00 | 0.00 | 85 | 1016.5 |
| 20260903035523 | 15 | 319 | 0.0 | 3.2 | 0.00 | 0.00 | 0.00 | 85 | 1016.5 |
| 20260903035002 | 15 | 319 | 0.0 | 3.2 | 0.00 | 0.00 | 0.00 | 85 | 1016.5 |
| 20260903034502 | 15 | 321 | 0.0 | 3.2 | 0.00 | 0.00 | 0.00 | 84 | 1016.5 |
| 20260903034023 | 15 | 321 | 0.0 | 3.2 | 0.00 | 0.00 | 0.00 | 84 | 1016.5 |
| 20260903033523 | 15 | 321 | 0.0 | 1.6 | 0.00 | 0.00 | 0.00 | 84 | 1017.6 |
| 20260903033002 | 15 | 321 | 0.0 | 3.2 | 0.00 | 0.00 | 0.00 | 83 | 1017.6 |
| 20260903032502 | 15 | 321 | 0.0 | 3.2 | 0.00 | 0.00 | 0.00 | 83 | 1017.6 |
| 20260903032002 | 16 | 316 | 0.0 | 4.8 | 0.00 | 0.00 | 0.00 | 83 | 1017.6 |
| 20260903031502 | 16 | 314 | 0.0 | 4.8 | 0.00 | 0.00 | 0.00 | 83 | 1017.6 |
| 20260903031023 | 16 | 298 | 0.0 | 4.8 | 0.00 | 0.00 | 0.00 | 82 | 1017.6 |
| 20260903030502 | 16 | 282 | 1.6 | 4.8 | 0.00 | 0.00 | 0.00 | 82 | 1017.6 |
| 20260903030002 | 16 | 296 | 1.6 | 3.2 | 0.00 | 0.00 | 0.00 | 81 | 1017.6 |
| 20260903025502 | 16 | 319 | 1.6 | 8.0 | 0.00 | 0.00 | 0.00 | 80 | 1017.6 |
| 20260903025002 | 16 | 309 | 1.6 | 8.0 | 0.00 | 0.00 | 0.00 | 80 | 1017.6 |
| 20260903024502 | 16 | 306 | 1.6 | 6.4 | 0.00 | 0.00 | 0.00 | 79 | 1017.6 |
| 20260903024002 | 16 | 313 | 1.6 | 9.7 | 0.00 | 0.00 | 0.00 | 78 | 1017.6 |
| 20260903023502 | 16 | 306 | 1.6 | 9.7 | 0.00 | 0.00 | 0.00 | 78 | 1017.6 |
| 20260903023002 | 16 | 299 | 3.2 | 11.3 | 0.00 | 0.00 | 0.00 | 77 | 1017.6 |
| 20260903022502 | 17 | 299 | 1.6 | 11.3 | 0.00 | 0.00 | 0.00 | 76 | 1017.6 |
| 20260903022002 | 17 | 313 | 1.6 | 11.3 | 0.00 | 0.00 | 0.00 | 76 | 1017.6 |
| 20260903021523 | 17 | 322 | 3.2 | 12.9 | 0.00 | 0.00 | 0.00 | 75 | 1017.6 |
| 20260903021002 | 17 | 320 | 3.2 | 12.9 | 0.00 | 0.00 | 0.00 | 75 | 1017.6 |
| 20260903020502 | 17 | 308 | 3.2 | 12.9 | 0.00 | 0.00 | 0.00 | 74 | 1017.6 |
| 20260903020002 | 17 | 285 | 3.2 | 12.9 | 0.00 | 0.00 | 0.00 | 74 | 1017.6 |
| 20260903015523 | 17 | 300 | 3.2 | 9.7 | 0.00 | 0.00 | 0.00 | 73 | 1017.6 |
| 20260903015002 | 17 | 317 | 3.2 | 12.9 | 0.00 | 0.00 | 0.00 | 72 | 1017.6 |
| 20260903014502 | 18 | 306 | 3.2 | 12.9 | 0.00 | 0.00 | 0.00 | 71 | 1017.6 |
| 20260903014023 | 18 | 292 | 3.2 | 11.3 | 0.00 | 0.00 | 0.00 | 71 | 1017.6 |
| 20260903013502 | 18 | 302 | 3.2 | 11.3 | 0.00 | 0.00 | 0.00 | 71 | 1017.6 |
| 20260903013002 | 18 | 299 | 3.2 | 12.9 | 0.00 | 0.00 | 0.00 | 70 | 1017.6 |
| 20260903012502 | 18 | 291 | 3.2 | 12.9 | 0.00 | 0.00 | 0.00 | 68 | 1017.6 |
| 20260903012002 | 18 | 286 | 3.2 | 12.9 | 0.00 | 0.00 | 0.00 | 67 | 1017.6 |
| 20260903011502 | 19 | 264 | 3.2 | 12.9 | 0.00 | 0.00 | 0.00 | 65 | 1017.6 |
| 20260903011002 | 19 | 278 | 3.2 | 14.5 | 0.00 | 0.00 | 0.00 | 65 | 1017.6 |
| 20260903010502 | 20 | 300 | 3.2 | 14.5 | 0.00 | 0.00 | 0.00 | 65 | 1017.6 |
| 20260903010002 | 20 | 293 | 3.2 | 6.4 | 0.00 | 0.00 | 0.00 | 66 | 1017.6 |
| 20260903005502 | 20 | 308 | 3.2 | 16.1 | 0.00 | 0.00 | 0.00 | 66 | 1017.6 |
| 20260903005002 | 20 | 319 | 4.8 | 17.7 | 0.00 | 0.00 | 0.00 | 65 | 1017.6 |
| 20260903004502 | 20 | 327 | 4.8 | 17.7 | 0.00 | 0.00 | 0.00 | 65 | 1017.6 |
| 20260903004002 | 20 | 320 | 3.2 | 9.7 | 0.00 | 0.00 | 0.00 | 65 | 1017.6 |
| 20260903003502 | 20 | 316 | 3.2 | 14.5 | 0.00 | 0.00 | 0.00 | 66 | 1017.6 |
| 20260903003002 | 20 | 311 | 3.2 | 14.5 | 0.00 | 0.00 | 0.00 | 67 | 1017.6 |
| 20260903002504 | 20 | 288 | 3.2 | 12.9 | 0.00 | 0.00 | 0.00 | 67 | 1017.6 |
| 20260903002002 | 20 | 295 | 4.8 | 17.7 | 0.00 | 0.00 | 0.00 | 66 | 1017.6 |
| 20260903001502 | 21 | 308 | 3.2 | 17.7 | 0.00 | 0.00 | 0.00 | 65 | 1017.6 |
| 20260903001002 | 21 | 325 | 3.2 | 16.1 | 0.00 | 0.00 | 0.00 | 65 | 1017.6 |
| 20260903000502 | 21 | 323 | 4.8 | 16.1 | 0.00 | 0.00 | 0.00 | 66 | 1017.6 |
| 20260903000002 | 21 | 318 | 4.8 | 17.7 | 0.00 | 0.00 | 0.00 | 65 | 1017.6 |
| 20260902235502 | 21 | 306 | 4.8 | 17.7 | 0.00 | 0.00 | 0.00 | 65 | 1017.6 |
| 20260902235002 | 21 | 288 | 4.8 | 20.9 | 0.00 | 0.00 | 0.00 | 65 | 1017.6 |
| 20260902234502 | 21 | 299 | 4.8 | 20.9 | 0.00 | 0.00 | 0.00 | 65 | 1017.6 |
| 20260902234023 | 21 | 305 | 4.8 | 20.9 | 0.00 | 0.00 | 0.00 | 66 | 1017.6 |
| 20260902233502 | 21 | 283 | 4.8 | 14.5 | 0.00 | 0.00 | 0.00 | 66 | 1017.6 |
| 20260902233002 | 21 | 283 | 4.8 | 16.1 | 0.00 | 0.00 | 0.00 | 67 | 1017.6 |
| 20260902232502 | 21 | 274 | 6.4 | 17.7 | 0.00 | 0.00 | 0.00 | 68 | 1017.6 |
| 20260902232002 | 21 | 277 | 4.8 | 17.7 | 0.00 | 0.00 | 0.00 | 68 | 1017.6 |
| 20260902231502 | 21 | 288 | 4.8 | 16.1 | 0.00 | 0.00 | 0.00 | 69 | 1017.6 |
| 20260902231023 | 21 | 277 | 4.8 | 16.1 | 0.00 | 0.00 | 0.00 | 69 | 1017.6 |
| 20260902230502 | 21 | 299 | 3.2 | 12.9 | 0.00 | 0.00 | 0.00 | 68 | 1017.6 |
| 20260902230002 | 21 | 290 | 3.2 | 16.1 | 0.00 | 0.00 | 0.00 | 69 | 1017.6 |
| 20260902225502 | 21 | 312 | 4.8 | 17.7 | 0.00 | 0.00 | 0.00 | 70 | 1017.6 |
| 20260902225002 | 21 | 318 | 4.8 | 17.7 | 0.00 | 0.00 | 0.00 | 69 | 1017.6 |
| 20260902224502 | 21 | 270 | 4.8 | 12.9 | 0.00 | 0.00 | 0.00 | 70 | 1017.6 |
| 20260902224003 | 21 | 276 | 4.8 | 12.9 | 0.00 | 0.00 | 0.00 | 70 | 1017.6 |
| 20260902223502 | 21 | 295 | 4.8 | 12.9 | 0.00 | 0.00 | 0.00 | 70 | 1017.6 |
| 20260902223023 | 21 | 275 | 4.8 | 12.9 | 0.00 | 0.00 | 0.00 | 70 | 1017.6 |
| 20260902222502 | 21 | 278 | 3.2 | 12.9 | 0.00 | 0.00 | 0.00 | 70 | 1017.6 |
| 20260902222002 | 21 | 310 | 3.2 | 14.5 | 0.00 | 0.00 | 0.00 | 72 | 1017.6 |
| 20260902221502 | 20 | 279 | 4.8 | 17.7 | 0.00 | 0.00 | 0.00 | 72 | 1017.6 |
| 20260902221002 | 20 | 288 | 4.8 | 17.7 | 0.00 | 0.00 | 0.00 | 73 | 1017.6 |